Other Public Products
Issued by NWS Grand Forks, ND

Home | Current Version | Previous Version | Graphics & Text | Print | Product List | Glossary Off
Versions: 1 2 3 4 5 6 7 8 9 10 11 12 13 14 15 16 17 18 19 20 21 22 23 24 25 26 27 28 29 30 31 32 33 34 35 36 37 38 39 40 41 42 43 44 45 46 47 48 49 50

000
FPUS83 KFGF 261231
OPUFGF
PRAIRIE TO PINES WEATHER ROUNDUP
NATIONAL WEATHER SERVICE EASTERN NORTH DAKOTA/GRAND FORKS ND
700 AM CDT TUE JUL 26 2016

 **SATELLITE DATA USED TO AUGMENT SKY COVER AT AUTOMATED STATIONS**
 *****  WEATHER ACROSS EASTERN NORTH DAKOTA  *****

CITY           SKY/WX    TMP DP  RH WIND       PRES   REMARKS
GRAND FORKS    CLOUDY    67  64  90 N6        29.93R
6HR MIN TEMP:  65; 6HR MAX TEMP:  73;

GRAND FORKS AF CLOUDY    65  65  99 N5        29.94S
GRAND CITY NWS   N/A     68 N/A N/A NE5         N/A
BUXTON           N/A     68  68  99 N2          N/A
DEVILS LAKE    CLEAR     63  62  97 N5        29.99S
6HR MIN TEMP:  63; 6HR MAX TEMP:  69;

FARGO          CLOUDY    72  61  68 SW8       29.95R
6HR MIN TEMP:  68; 6HR MAX TEMP:  75; 6HR PCP: TRACE;

WAHPETON ARPT  CLOUDY    68  61  77 NE6       29.98R
$$

 *****  WEATHER ACROSS CENTRAL AND WESTERN NORTH DAKOTA  *****

CITY           SKY/WX    TMP DP  RH WIND       PRES   REMARKS
JAMESTOWN      CLOUDY    68  67  96 N7        29.97R
6HR MIN TEMP:  68; 6HR MAX TEMP:  71; 6HR PCP:  0.01;

BISMARCK       CLEAR     69  67  93 NE8       29.96R
6HR MIN TEMP:  69; 6HR MAX TEMP:  74;

MINOT          CLEAR     65  61  87 W3        30.00S
6HR MIN TEMP:  61; 6HR MAX TEMP:  69;

MINOT AFB      CLEAR     62  60  93 N3        30.00R
6HR MIN TEMP:  57; 6HR MAX TEMP:  65;

GARRISON         N/A     67  65  93 E5        29.99S
6HR MIN TEMP:  61; 6HR MAX TEMP:  69;

WILLISTON      PTCLDY    64  59  83 N9        30.03R
6HR MIN TEMP:  62; 6HR MAX TEMP:  73;

DICKINSON      MOCLDY    64  63  96 NE7       30.00R
6HR MIN TEMP:  61; 6HR MAX TEMP:  67;

HETTINGER      MOCLDY    68  65  90 NE9       29.99F
6HR MIN TEMP:  67; 6HR MAX TEMP:  75;

$$

 *****  OTHER OBSERVATIONS NORTHEAST NORTH DAKOTA  *****

CITY           SKY/WX    TMP DP  RH WIND       PRES   REMARKS
WALHALLA       FAIR      66  63  88 NW3       29.98R
LANGDON        FAIR      63  63 100 CALM      30.00F
CAVALIER       FAIR      66  64  94 NW5       29.97S
GRAFTON        FAIR      66  66 100 NW6       29.97R
CANDO          FAIR      63  63 100 N7        30.02S
FORT TOTTEN    NOT AVBL
ROLLA          FAIR      63  61  94 N5        30.03S
RUGBY          NOT AVBL
 ***** THE ABOVE OBSERVATIONS ARE NON NWS ARE NOT QUALITY
        CONTROLLED AND MAY MIS-REPORT RAIN FOR SNOW...
$$

 *****  OTHER OBSERVATIONS SOUTHEAST NORTH DAKOTA *****

CITY           SKY/WX    TMP DP  RH WIND       PRES   REMARKS
COOPERSTOWN    NOT AVBL
VALLEY CITY      N/A     68  68 100 N5        29.98F
OAKES            N/A    N/A N/A N/A MISG        N/A
GWINNER        FAIR      73  63  68 SW13      29.96S
SHEYENNE NWR     N/A     70  62  75 W3        29.95S
BUFFALO          N/A     67  64  91 N5          N/A
WYNDMERE         N/A     73  63  68 SW7         N/A
 ***** THE ABOVE OBSERVATIONS ARE NON NWS ARE NOT QUALITY
       CONTROLLED AND MAY MIS-REPORT RAIN FOR SNOW...
$$

  *****  WEATHER ACROSS NORTHERN MINNESOTA  *****

CITY           SKY/WX    TMP DP  RH WIND       PRES   REMARKS
FLAG ISLAND    MOSUNNY   70  64  83 N6        29.96R
WARROAD        CLEAR     64  61  88 N3        29.97S
ROSEAU         CLEAR     63  57  82 N3        29.97R
HALLOCK        CLEAR     64  63  94 N3        29.95S
THF RVR FALLS  CLOUDY    68  63  84 E8        29.96S
6HR MIN TEMP:  66; 6HR MAX TEMP:  71;

HALSTAD          N/A     66  64  93 S2          N/A
FOSSTON        CLOUDY    68  64  88 CALM      29.98R
BAUDETTE       SUNNY     61  61 100 CALM      29.97R
6HR MIN TEMP:  57; 6HR MAX TEMP:  66;

WASKISH        MOSUNNY   66  64  94 SE5       29.97R
CROOKSTON      PTCLDY    70  66  88 E6        29.95R
$$
  *****  WEATHER ACROSS CENTRAL AND WEST MINNESOTA  *****

CITY           SKY/WX    TMP DP  RH WIND       PRES   REMARKS
BEMIDJI        CLOUDY    68  64  88 CALM      29.97S
PARK RAPIDS    LGT RAIN  69  63  81 SW6       29.97S
6HR MIN TEMP:  67; 6HR MAX TEMP:  72; 6HR PCP: TRACE;

WADENA         CLOUDY    68  63  83 W8        30.00R
DETROIT LAKES  TSTM      70  63  78 W9        30.00R
MOORHEAD       CLOUDY    68  64  88 SW3       29.95F
FERGUS FALLS   CLOUDY    70  63  78 S5        30.01R
ELBOW LAKE     FAIR      67  64  90 S7        30.00F
MORRIS MN      PTCLDY    66  64  94 E3        30.01S
STAPLES        CLOUDY    70  61  73 SW8       29.99R
WHEATON        CLOUDY    73  66  78 S6        30.00F
$$
  *****  WEATHER ELSEWHERE ACROSS MINNESOTA  *****

CITY           SKY/WX    TMP DP  RH WIND       PRES   REMARKS
DULUTH         CLOUDY    70  64  81 W13       30.00S
6HR MIN TEMP:  66; 6HR MAX TEMP:  71;

INTRNTL FALLS  SUNNY     64  62  93 CALM      29.97R
6HR MIN TEMP:  57; 6HR MAX TEMP:  65;

ELY            CLOUDY    64  63  94 CALM      29.98F FOG
CLOQUET        CLOUDY    68  63  83 SW7       30.00S
BRAINERD       CLOUDY    70  64  81 S12       29.99S
6HR MIN TEMP:  69; 6HR MAX TEMP:  73;

HIBBING        MOSUNNY   63  62  97 SE3       29.99F
6HR MIN TEMP:  58; 6HR MAX TEMP:  64;

ALEXANDRIA     MOCLDY    70  62  76 SW13      30.04R
6HR MIN TEMP:  70; 6HR MAX TEMP:  74;

SAINT CLOUD    PTCLDY    68  66  93 S7        30.02R
6HR MIN TEMP:  66; 6HR MAX TEMP:  69;

MINNEAPOLIS    MOSUNNY   72  64  76 SW5       30.05R
6HR MIN TEMP:  72; 6HR MAX TEMP:  76;

$$

  *****  WEATHER ACROSS SOUTH DAKOTA  *****

CITY           SKY/WX    TMP DP  RH WIND       PRES   REMARKS
SIOUX FALLS    PTCLDY    70  63  78 S7        30.06S
6HR MIN TEMP:  68; 6HR MAX TEMP:  74;

BROOKINGS      CLEAR     66  62  87 S5        30.06R
WATERTOWN      CLEAR     68  63  84 S10       30.03S
6HR MIN TEMP:  67; 6HR MAX TEMP:  73;

HURON          CLEAR     66  61  84 S9        30.01R
6HR MIN TEMP:  65; 6HR MAX TEMP:  73;

SISSETON         N/A     76  61  59 W21G31    29.95R
ABERDEEN       MOCLDY    66  60  81 SE6       30.01S
6HR MIN TEMP:  63; 6HR MAX TEMP:  71;

MITCHELL       CLEAR     65  62  90 S8        30.03R
PIERRE         CLEAR     72  63  73 S9        29.95S
6HR MIN TEMP:  71; 6HR MAX TEMP:  76;

MOBRIDGE       PTCLDY    73  63  70 SE5       29.92S
RAPID CITY     PTCLDY    65  61  87 S8        29.98F
6HR MIN TEMP:  65; 6HR MAX TEMP:  74;

$$

  *****  SOME WEATHER IN NEARBY STATES *****

CITY           SKY/WX    TMP DP  RH WIND       PRES   REMARKS
GLASGOW MT     PTCLDY    64  59  83 E13       30.02S
6HR MIN TEMP:  64; 6HR MAX TEMP:  71;

GREAT FALLS MT CLEAR     53  47  79 SW9       30.08S
6HR MIN TEMP:  52; 6HR MAX TEMP:  69;

CHEYENNE WY    CLEAR     56  46  69 W7        30.18S
6HR MIN TEMP:  55; 6HR MAX TEMP:  66;

SCOTTSBLUFF NE CLEAR     63  61  93 SE9       30.05S
6HR MIN TEMP:  63; 6HR MAX TEMP:  71;

OMAHA NE       CLEAR     67  64  90 CALM      30.08F
6HR MIN TEMP:  64; 6HR MAX TEMP:  73;

DES MOINES IA  PTCLDY    69  66  90 CALM      30.08S
6HR MIN TEMP:  68; 6HR MAX TEMP:  74;

DAVENPORT IA   SUNNY     67  64  90 N3        30.09R
6HR MIN TEMP:  63; 6HR MAX TEMP:  67;

CHICAGO IL     MOSUNNY   74  66  76 NW5       30.07R
6HR MIN TEMP:  69; 6HR MAX TEMP:  76;

EAU CLAIRE WI  SUNNY     67  65  93 CALM      30.06R
6HR MIN TEMP:  64; 6HR MAX TEMP:  67;

LA CROSSE WI   CLOUDY    67  66  97 SE6       30.06F FOG
6HR MIN TEMP:  66; 6HR MAX TEMP:  70;

$$

  *****  SOME NATIONAL WEATHER *****

CITY           SKY/WX    TMP DP  RH WIND       PRES   REMARKS
LA GUARDIA NY  MOSUNNY   77  69  76 NW8       29.91R
6HR MIN TEMP:  75; 6HR MAX TEMP:  77;                              C1F1C2F2C3F3C4F4C5F5C6F6C7F7C8F8C9F9CaFaCbFbCcFcCdFdCe!



USA.gov is the U.S. government's official web portal to all federal, state and local government web resources and services.